Location: Scanlan (historical)
(35.2833°N, 90.1333°W)
Time: 05:55:26
(UTC+00:00)

Daily predictions for brighter satellites

Satellite Brightness Start Highest point End
(mag) Time Altitude Azimuth Time Altitude Azimuth Time Altitude Azimuth
Gbstr 26 Del rocket 3.2 00:00:14 10° SSW 00:04:11 43° SE 00:05:34 30° E
Cosmos 1354 Rocket 4.3 00:02:03 10° S 00:07:05 47° ESE 00:10:25 20° NE
Meteor 1-20 Rocket 4.2 00:02:38 10° N 00:07:59 54° E 00:13:18 10° SSE
Spot 4 Rocket 4.3 00:04:41 10° SE 00:09:29 44° ENE 00:14:18 10° N
Cosmos 1743 2.1 00:06:45 10° N 00:10:00 78° E 00:13:14 10° S
Cosmos 1697 Rocket 2.9 00:04:46 10° S 00:10:06 48° ESE 00:13:23 22° NE
IRIDIUM 114 4.3 00:06:54 10° N 00:12:09 89° E 00:17:21 10° S
BREEZE-M DEB (TANK) 4.2 00:00:30 10° SSW 00:13:01 53° SE 00:15:42 28° ENE
SL-19 R/B 4.4 00:09:11 10° SE 00:14:02 41° ENE 00:19:04 10° N
Intelsat 5-1 Rocket 4.1 00:13:50 10° S 00:14:42 11° S 00:15:42 10° SSE
Cosmos 1606 Rocket 3.4 00:15:44 10° S 00:20:03 73° E 00:23:21 17° NNE
SJ-7 4.4 00:17:40 10° SSE 00:25:13 - N 00:20:41 45° ESE
Okean 1-7 Rocket 3.5 00:17:24 10° N 00:21:45 59° E 00:26:02 10° SSE
Resurs 1-3 3.5 00:20:02 10° SSE 00:24:12 55° ENE 00:28:25 10° N
Cosmos 1655 Rocket 4.2 00:19:08 10° N 00:25:02 42° E 00:30:52 10° SSE
Cosmos 1777 Rocket 4.5 00:22:59 10° SSW 00:28:10 60° WNW 00:33:11 11° N
Cosmos 1570 Rocket 4.4 00:24:28 10° NNW 00:29:44 64° WSW 00:34:57 10° S
Meteor 1-25 Rocket 4.2 00:25:10 10° N 00:30:58 67° E 00:36:42 10° SSE
NOSS 3-2 (C) 3.4 00:26:50 10° SW 00:31:35 59° NW 00:34:58 22° NNE
ARIANE 6 FM1 Upper Stage 4.3 00:34:03 10° NW 00:37:39 33° WSW 00:41:20 10° S
SPOT 1/Viking Rocket 4.1 00:41:07 10° S 00:46:12 57° W 00:51:20 10° NNW
Cosmos 1726 Rocket 3.8 00:43:55 10° SSW 00:48:31 74° W 00:50:30 34° N
Cosmos 2297 Rocket 2.0 00:42:52 10° NNW 00:48:34 81° ENE 00:54:09 10° SSE
NOSS 2-3 (E) 3.8 00:45:39 10° SSW 00:48:30 47° SSW 00:48:30 47° SSW
NOAA 6 3.8 00:45:44 10° SSE 00:50:49 76° ENE 00:55:56 10° N
OceanSat 1 rocket 4.5 00:47:10 10° SSE 00:51:58 89° E 00:56:44 10° NNW
Cosmos 1461 3.7 00:50:14 10° SW 00:53:53 41° WNW 00:54:05 41° NW
NOSS 2-3 (D) 4.2 00:50:39 10° SSW 00:53:17 41° SSW 00:53:17 41° SSW
Helios 1A Rocket 3.9 00:55:08 33° WNW 00:55:19 34° WNW 00:58:25 10° SW
BREEZE-M DEB (TANK) 4.0 00:52:56 10° WSW 00:56:27 32° WNW 00:56:27 32° WNW
Meteor 2-20 4.4 00:52:31 10° S 00:58:41 84° W 01:03:10 20° N
CZ-4C R/B 3.2 00:51:35 10° NNW 00:58:46 49° NE 00:59:10 48° ENE
YAOGAN 1 3.6 01:00:43 10° S 01:04:45 43° W 01:08:49 10° NNW
Cosmos 1980 Rocket 2.6 01:04:46 10° SSW 01:09:03 51° S 01:09:03 51° S
H-2A R/B 3.3 01:23:38 10° WSW 01:25:15 30° SW 01:25:15 30° SW
USA 238 DEB 3.6 01:24:12 10° SW 01:29:11 64° SW 01:29:11 64° SW
USA 238 3.7 01:24:18 10° SSW 01:29:14 63° SW 01:29:14 63° SW
Cosmos 2227 Rocket 4.3 01:33:29 10° NNW 01:34:32 16° NNW 01:34:32 16° NNW
CZ-4C R/B 4.5 02:39:57 10° NW 02:44:13 31° WNW 02:44:13 31° WNW
Atlas Centaur 2 4.3 09:27:36 29° SE 09:27:36 29° SE 09:31:41 10° SE
CZ-3 Stage 3 3.9 10:03:34 60° SW 10:06:01 74° S 10:40:54 10° E
Cosmos 1980 Rocket 4.4 10:04:01 14° NNE 10:06:44 19° ENE 10:10:41 10° ESE
Timation 1 Rocket 4.4 10:25:40 39° S 10:27:58 72° ESE 10:33:55 10° NNE
Centaur AC-112 4.5 10:29:42 33° SSW 10:31:34 41° SSE 10:48:19 10° E
Cosmos 1503 Rocket 4.0 10:33:23 74° ESE 10:33:23 74° ESE 10:38:13 10° SSE
Cosmos 1354 Rocket 4.4 10:36:49 41° NNE 10:38:22 58° ENE 10:43:30 10° SSE
Cosmos 1544 Rocket 4.0 10:39:22 57° ENE 10:39:39 58° E 10:43:58 10° SSE
Cosmos 1697 Rocket 2.5 10:49:33 61° NW 10:50:30 77° WSW 10:56:08 10° SSE
IRS-1D 3.7 10:46:54 10° NNE 10:51:53 68° ESE 10:56:56 10° S
Atlas 2A Centaur Rocket 3.7 10:54:03 17° S 10:54:03 17° S 10:55:08 10° SSE
SJ-11-01 4.1 10:50:50 10° N 10:55:32 79° WNW 11:00:11 10° SSW
Meteor 2-12 Rocket 4.4 10:51:08 10° SSW 10:57:09 59° W 11:03:11 10° N
USA 238 DEB 4.0 10:54:14 39° NW 10:57:22 65° WSW 11:05:27 10° SSE
USA 238 4.0 10:54:18 38° NW 10:57:29 66° WSW 11:05:35 10° SSE
Cosmos 1777 Rocket 4.3 10:59:16 45° SW 10:59:16 45° SW 11:03:29 10° S
Nadezhda 4 Rocket 4.4 10:53:10 10° S 10:59:22 63° E 11:05:35 10° NNE
COSMOS 2406 4.4 10:55:20 10° S 11:00:39 43° ESE 11:05:59 10° NE
Cosmos 468 Rocket 3.9 11:01:01 10° SSW 11:06:13 63° WNW 11:11:25 10° N
Delta 2 Rocket 3.3 11:07:57 49° E 11:07:57 49° E 11:10:15 10° E
Atlas Centaur 2 4.3 11:09:32 18° SW 11:12:27 22° SSW 11:18:22 10° SSE
Cosmos 1782 3.9 11:14:26 26° SSW 11:14:26 26° SSW 11:16:14 10° SSW
CZ-4 R/B 3.6 11:13:06 10° N 11:17:43 75° WNW 11:22:18 10° SSW
CZ-3 R/B 3.4 11:08:46 23° W 11:19:11 44° SSW 11:25:54 10° SE
OPS 6432 4.4 11:19:53 53° SW 11:19:53 53° SW 11:23:07 10° SSE
Cosmos 1536 Rocket 3.6 11:15:30 10° SSW 11:19:49 54° W 11:24:11 10° N
Cosmos 2082 Rocket 2.1 11:14:25 10° SSW 11:19:59 63° WNW 11:25:33 10° NNE
Helios 1A Rocket 3.5 11:19:32 10° SSE 11:22:42 43° ENE 11:25:55 10° N
BREEZE-M DEB (TANK) 4.1 11:23:10 15° N 11:24:00 16° NNE 11:27:02 10° ENE
SKYMED 2 3.4 11:26:53 10° S 11:31:12 74° WSW 11:35:33 10° NNW
BREEZE-M DEB (TANK) 3.6 11:33:08 20° NW 11:37:51 65° NNE 11:41:09 10° ESE
Cosmos 2098 Rocket 4.0 11:32:55 10° NNW 11:38:19 45° W 11:43:47 10° SSW
SL-8 R/B 3.9 11:39:29 21° NW 11:42:39 66° NE 11:47:22 10° ESE
Cosmos 372 Rocket 4.0 11:39:00 10° NNW 11:44:06 82° ENE 11:49:09 10° SSE
Cosmos 2369 3.8 11:43:29 10° NNW 11:49:12 79° ENE 11:54:51 10° SSE
Tiangong -0.7 11:48:48 20° NW 11:50:16 28° N 11:53:08 10° ENE
Cosmos 1980 Rocket 2.3 11:45:49 11° NNW 11:51:00 52° WSW 11:56:23 10° S
SL-24 R/B - RUBIN 2 3.4 11:47:28 14° NNW 11:51:14 81° WSW 11:55:39 10° SSE
USA 267 4.1 11:45:57 10° NE 11:52:19 52° SE 11:58:38 10° SSW
